User: anonymous
Location: Oshawa
(43.9000°N, 78.8670°W)
Time: 13:35:49
(UTC-04:00)
Language:

Cosmos 2333 Rocket - Orbit

View from above orbital plane
View from above orbital plane
View from above satellite
View from above satellite

Ground track
Ground track

The orbit data is extracted from the following two-line orbital elements,

1 24298U 96051B   14109.10419846 -.00000021  00000-0  14603-4 0  4328
2 24298 070.8714 336.3143 0013483 105.8624 056.8168 14.12487219908721
Epoch (UTC): 19 April 2014 02:30:02
Eccentricity: 0.0013483
inclination: 70.8714°
perigee height: 841 km
apogee height: 860 km
right ascension of ascending node: 336.3143°
argument of perigee: 105.8624°
revolutions per day: 14.12487219
mean anomaly at epoch: 56.8168°
orbit number at epoch: 90872

The dashed part of the orbit path shows where the satellite is in the earth's shadow,  

DLR